Weather in Znamenka

Russia / Chelyabinsk Oblast     56°06′50″N   60°53′13″E
temp.,
°C
wind,
m/s
gust,
m/s
humid.,
%
clouds,
%
prec.,
mm/h
press.,
hPa
HPBL,
m
9 may, sun
sun923:00+14nw2243100 0.0 101616
02:00+12n2267100 0.0 101525
05:00+12n3373100 0.0 101648
08:00+14n3468100 0.0 1016185
11:00+19ne344288 0.0 1016812
14:00+21ene5630100 0.0 10162245
17:00+21nne4631100 0.0 10162691
20:00+17ne2346100 0.0 101854
10 may, mon
mon1023:00+13sw3359100 0.0 101932
02:00+13n225967 0.0 102021
05:00+11nne337086 0.0 102235
08:00+14ene35565 0.0 1023375
11:00+19ene46385 0.0 10231389
14:00+20e56311 0.0 10231860
17:00+20e55280 0.0 10231895
20:00+16ese36440 0.0 1024101
11 may, tue
tue1123:00+12se33483 0.0 102625
02:00+10sse22535 0.0 102613
05:00+9s115661 0.0 102710
08:00+13s2248100 0.0 1027181
11:00+17s3336100 0.0 1027778
14:00+20ssw2229100 0.0 10271395
17:00+20nne1229100 0.0 10271410
20:00+17ese224270 0.0 102711
12 may, wed
wed1223:00+15w224512 0.0 102815
02:00+13n366588 0.0 1029142
05:00+11n3491100 0.0 102973
08:00+13nne4580100 0.0 1030419
11:00+17nne34485 0.0 1030880
14:00+19nne233793 0.0 10291591
17:00+21nne243346 0.0 10281954
20:00+18nne1247100 0.0 102811
13 may, thu
thu1323:00+14ne225974 0.0 102828
02:00+13nw226784 0.0 102815
05:00+12nw33789 0.0 102945
08:00+17nnw346326 0.0 1028300
11:00+22nnw3546100 0.0 10271781
14:00+24nnw4537100 0.0 10262020
17:00+25n453498 0.0 10252377
20:00+21nne22466 0.0 102623